This demonstration page uses our WeatherBlox Daily Observations layout. Learn more.

Hourly Observations for January 22, 2020

Temp ( °F °C ) Dew Point ( °F °C ) Humidity (%) Winds ( mph kmh ) Pressure ( in mb ) Visibility ( mi km ) Precip ( " mm )
12:15 am 00:15 Cloudy with Rain 33 0.5 32 0 96 96 S 12 19 29.94 1014 7 11.26538 0 0
12:35 am 00:35 Cloudy with Light Rain 33 0.3 32 0 98 98 SSE 13 20 29.93 1014 7 11.26538 0.01 0.254
12:55 am 00:55 Cloudy with Light Drizzle 33 0.5 32 0 96 96 SSE 12 19 29.92 1013 7 11.26538 0.01 0.254
1:15 am 01:15 Cloudy with Light Drizzle 33 0.5 32 0.1 97 97 S 12 19 29.92 1013 7 11.26538 0 0
1:35 am 01:35 Cloudy with Light Drizzle 33 0.5 32 0.2 98 98 S 9 15 29.91 1013 7 11.26538 0 0
1:55 am 01:55 Cloudy with Drizzle 33 0.5 32 0.2 98 98 S 9 15 29.91 1013 7 11.26538 0 0
2:15 am 02:15 Cloudy with Drizzle 33 0.5 33 0.3 99 99 S 10 17 29.9 1013 7 11.26538 0 0
2:35 am 02:35 Cloudy 33 0.5 33 0.3 99 99 S 10 17 29.89 1012 7 11.26538 0 0
2:55 am 02:55 Cloudy 33 0.5 33 0.5 100 100 S 10 17 29.89 1012 7 11.26538 0 0
3:15 am 03:15 Cloudy 33 0.6 33 0.5 99 99 S 9 15 29.88 1012 7 11.26538 0 0
3:35 am 03:35 Cloudy with Mist and Fog 33 0.6 33 0.5 99 99 S 8 13 29.87 1012 5 8.0467 0 0
3:55 am 03:55 Cloudy with Mist and Fog 33 0.6 33 0.5 99 99 S 8 13 29.86 1011 5 8.0467 0 0
4:15 am 04:15 Cloudy with Mist and Fog 33 0.6 33 0.6 100 100 S 9 15 29.85 1011 5 8.0467 0 0
4:35 am 04:35 Cloudy with Mist and Fog 33 0.8 33 0.7 99 99 SSW 7 11 29.85 1011 5 8.0467 0 0
4:55 am 04:55 Cloudy with Mist and Fog 33 0.8 33 0.8 100 100 S 7 11 29.85 1011 5 8.0467 0 0
5:15 am 05:15 Cloudy with Mist and Fog 33 0.8 33 0.7 99 99 S 6 9 29.85 1011 5 8.0467 0 0
5:35 am 05:35 Cloudy with Mist and Fog 33 0.8 33 0.8 100 100 S 8 13 29.84 1010 5 8.0467 0 0
5:55 am 05:55 Cloudy with Mist and Fog 33 0.8 33 0.8 100 100 S 7 11 29.84 1010 5 8.0467 0 0
6:15 am 06:15 Cloudy with Mist and Fog 33 0.8 33 0.8 100 100 S 6 9 29.84 1010 3 4.82802 0 0
6:35 am 06:35 Cloudy with Mist and Fog 33 0.7 33 0.7 100 100 S 6 9 29.84 1010 2.5 4.02335 0 0
6:55 am 06:55 Cloudy with Mist and Fog 34 0.9 34 0.9 100 100 S 7 11 29.84 1010 3 4.82802 0 0
7:15 am 07:15 Cloudy with Mist and Fog 33 0.8 33 0.8 100 100 S 7 11 29.84 1010 2 3.21868 0 0
7:35 am 07:35 Cloudy with Mist and Fog 33 0.8 33 0.8 100 100 S 7 11 29.84 1010 1.5 2.41401 0 0
7:55 am 07:55 Cloudy with Mist and Fog 33 0.7 33 0.7 100 100 SSW 6 9 29.84 1010 0.75 1.207005 0 0
8:15 am 08:15 Cloudy with Fog 33 0.7 33 0.7 100 100 SSW 7 11 29.84 1010 0.25 0.402335 0 0
8:35 am 08:35 Cloudy with Fog 33 0.8 33 0.8 100 100 SSW 7 11 29.84 1010 0.25 0.402335 0 0
8:55 am 08:55 Cloudy with Fog 34 0.9 34 0.9 100 100 S 3 6 29.85 1011 0.25 0.402335 0 0
9:15 am 09:15 Cloudy with Fog 34 1 34 1 100 100 SSW 6 9 29.84 1010 0.25 0.402335 0 0
9:35 am 09:35 Cloudy with Fog 34 1.2 34 1.2 100 100 SW 8 13 29.83 1010 0.25 0.402335 0 0
9:55 am 09:55 Cloudy with Fog 34 1.2 34 1.2 100 100 SW 9 15 29.83 1010 0.5 0.80467 0 0
10:15 am 10:15 Cloudy with Mist and Fog 34 1.3 34 1.3 100 100 SW 6 9 29.83 1010 1 1.60934 0 0
10:35 am 10:35 Cloudy with Mist and Fog 35 1.5 35 1.5 100 100 SW 6 9 29.82 1010 5 8.0467 0 0
10:55 am 10:55 Cloudy with Mist and Fog 35 1.7 35 1.7 100 100 WSW 6 9 29.83 1010 5 8.0467 0 0
11:15 am 11:15 Cloudy 35 1.9 35 1.5 97 97 WSW 6 9 29.83 1010 10 16.0934 0 0
11:35 am 11:35 Cloudy 36 2 34 1.3 95 95 W 5 7 29.82 1010 10 16.0934 0 0
11:55 am 11:55 Cloudy 36 2.4 35 1.5 94 94 WNW 5 7 29.8 1009 10 16.0934 0 0
12:15 pm 12:15 Partly Cloudy 37 2.7 35 1.7 93 93 NW 5 7 29.8 1009 10 16.0934 0 0
12:35 pm 12:35 Partly Cloudy 38 3.4 33 0.7 83 83 NW 8 13 29.78 1009 10 16.0934 0 0
12:55 pm 12:55 Sunny 38 3.4 33 0.7 83 83 NW 8 13 29.77 1008 10 16.0934 0 0
1:15 pm 13:15 Sunny 39 3.9 34 0.9 81 81 NW 3 6 29.77 1008 10 16.0934 0 0
1:35 pm 13:35 Sunny 40 4.5 34 1 78 78 NW 5 7 29.76 1008 10 16.0934 0 0
1:55 pm 13:55 Sunny 41 5 34 1.1 76 76 WNW 7 11 29.76 1008 10 16.0934 0 0
2:15 pm 14:15 Sunny 42 5.5 34 1.3 75 75 WNW 8 13 29.75 1008 10 16.0934 0 0
2:35 pm 14:35 Sunny 43 5.9 34 1.3 73 73 WNW 12 19 29.75 1007 10 16.0934 0 0
2:55 pm 14:55 Sunny 43 6.1 34 1.2 71 71 NW 14 22 29.75 1007 10 16.0934 0 0
3:15 pm 15:15 Sunny 44 6.5 34 1.3 70 70 WNW 10 17 29.74 1007 10 16.0934 0 0
3:35 pm 15:35 Sunny 44 6.5 35 1.4 70 70 WNW 9 15 29.76 1008 10 16.0934 0 0
3:55 pm 15:55 Sunny 44 6.9 35 1.4 68 68 NW 10 17 29.76 1008 10 16.0934 0 0
4:15 pm 16:15 Sunny 44 6.6 34 1.3 69 69 NNW 10 17 29.77 1008 10 16.0934 0 0
4:35 pm 16:35 Sunny 43 6.2 34 1 70 70 N 8 13 29.79 1009 10 16.0934 0 0
4:55 pm 16:55 Sunny 42 5.6 33 0.4 70 70 N 12 19 29.8 1009 10 16.0934 0 0
5:15 pm 17:15 Sunny 40 4.6 32 0 72 72 NNW 9 15 29.82 1010 10 16.0934 0 0
5:35 pm 17:35 Sunny 37 2.8 31 -0.4 80 80 NNW 8 13 29.85 1011 10 16.0934 0 0
5:55 pm 17:55 Partly Cloudy 35 1.5 31 -0.7 85 85 N 6 9 29.86 1011 10 16.0934 0 0
6:15 pm 18:15 Clear 34 1 30 -0.9 87 87 NW 8 13 29.88 1012 10 16.0934 0 0
6:35 pm 18:35 Partly Cloudy 33 0.8 30 -1 88 88 W 6 9 29.89 1012 10 16.0934 0 0
6:55 pm 18:55 Mostly Cloudy 33 0.8 31 -0.7 90 90 WNW 8 13 29.9 1012 10 16.0934 0 0
7:15 pm 19:15 Cloudy 35 1.5 31 -0.4 87 87 WNW 8 13 29.91 1013 10 16.0934 0 0
7:35 pm 19:35 Cloudy 35 1.6 32 0 89 89 WNW 5 7 29.92 1013 10 16.0934 0 0
7:55 pm 19:55 Cloudy 35 1.6 32 0 89 89 WNW 9 15 29.93 1014 10 16.0934 0 0
8:15 pm 20:15 Cloudy 35 1.9 32 0.1 88 88 WNW 9 15 29.93 1013 10 16.0934 0 0
8:35 pm 20:35 Cloudy 36 2 33 0.5 90 90 NW 9 15 29.95 1014 10 16.0934 0 0
8:55 pm 20:55 Cloudy 37 2.6 33 0.6 87 87 NW 8 13 29.95 1014 10 16.0934 0 0
9:15 pm 21:15 Cloudy 38 3.1 33 0.7 84 84 NNW 9 15 29.95 1014 10 16.0934 0 0
9:35 pm 21:35 Cloudy with Drizzle 38 3.1 35 1.4 89 89 NNW 10 17 29.95 1014 10 16.0934 0 0
9:55 pm 21:55 Cloudy with Light Drizzle 37 3 35 1.8 92 92 NW 8 13 29.95 1014 10 16.0934 0 0
10:15 pm 22:15 Cloudy with Light Drizzle 37 3 36 2.1 94 94 NW 16 26 29.97 1015 7 11.26538 0 0
10:35 pm 22:35 Cloudy with Light Rain 37 2.9 36 2.4 97 97 NW 15 24 29.97 1015 7 11.26538 0 0
10:55 pm 22:55 Cloudy 37 2.8 36 2 95 95 NW 14 22 29.98 1015 10 16.0934 0 0
11:15 pm 23:15 Cloudy with Light Rain 37 3 35 1.7 91 91 NNW 16 26 29.98 1015 10 16.0934 0 0
11:35 pm 23:35 Cloudy with Rain 37 2.5 35 1.6 94 94 NW 14 22 29.99 1016 10 16.0934 0.01 0.254
11:55 pm 23:55 Cloudy with Light Drizzle 37 2.5 34 1.1 91 91 NW 15 24 30 1016 10 16.0934 0.01 0.254

Powered by AerisWeather